Home   Weather   Cincinnati   Past weeks

Flag for USA Past Weather in Cincinnati, Ohio, USA — Yesterday and Last 2 Weeks

Now
73 °F

Partly sunny.


Feels Like: 77 °F
Forecast: 60 / 74 °F
Wind: 20 mph from South

Location: Cincinnati Municipal Airport Lunken Field

Current Time: Feb 24, 2017 at 12:54:54 pm

Latest Report: Feb 24, 2017 at 11:53 am


Visibility: 10 mi

Pressure: 29.65 "Hg

Humidity: 57%

Dew Point: 57 °F

Location of CincinnatiLocation

Past Weather in Cincinnati — Graph

°F

Cincinnati Temperature Yesterday

Maximum temperature yesterday: 72 °F (at 3:53 pm)
Minimum temperature yesterday: 51 °F (at 12:53 am)
Average temperature yesterday: 62 °F

High & Low Weather Summary for the Past Weeks

 TemperatureHumidityPressure
High72 °F (Feb 23, 3:53 pm)100% (Feb 11, 11:53 pm)30.45 "Hg (Feb 11, 11:53 pm)
Low18 °F (Feb 9, 10:53 pm)27% (Feb 10, 2:53 pm)29.67 "Hg (Feb 24, 10:53 am)
Average48 °F73%29.98 "Hg
* Reported Feb 9 10:53 am — Feb 24 10:53 am, Cincinnati, Weather by CustomWeather, © 2017

Note: Actual official high and low records may vary slightly from our data, if they occured in-between our weather recording intervals... More about our weather records

Advertising

Cincinnati Weather History for the Previous 24 Hours

Scroll right to see more
 ConditionsComfort  
Time TempWeatherWind HumidityBarometerVisibility
10:53 am
Fri, Feb 24
70 °FPartly sunny.17 mph64%29.67 "Hg10 mi
9:53 am65 °FScattered clouds.14 mph70%29.71 "Hg10 mi
8:53 am63 °FScattered clouds.12 mph73%29.71 "Hg10 mi
7:53 am59 °FPassing clouds.10 mph84%29.71 "Hg10 mi
6:53 am60 °FPassing clouds.13 mph80%29.70 "Hg10 mi
5:53 am59 °FClear.13 mph84%29.71 "Hg10 mi
4:53 am54 °FClear.7 mph90%29.70 "Hg10 mi
3:53 am55 °FClear.3 mph90%29.73 "Hg10 mi
2:53 am59 °FClear.3 mph84%29.73 "Hg10 mi
1:53 am60 °FClear.8 mph83%29.72 "Hg10 mi
12:53 am57 °FPassing clouds.6 mph93%29.73 "Hg10 mi
11:53 pm
Thu, Feb 23
58 °FPassing clouds.3 mph90%29.74 "Hg10 mi
10:53 pm60 °FPassing clouds.3 mph86%29.75 "Hg10 mi
9:53 pm64 °FOvercast.7 mph78%29.76 "Hg10 mi
8:53 pm65 °FOvercast.7 mph78%29.76 "Hg10 mi
7:53 pm64 °FOvercast.6 mph78%29.77 "Hg10 mi
6:53 pm67 °FMostly cloudy.6 mph71%29.77 "Hg10 mi
5:53 pm67 °FOvercast.8 mph71%29.77 "Hg10 mi
4:53 pm68 °FOvercast.7 mph68%29.76 "Hg10 mi
3:53 pm72 °FPartly sunny.9 mph61%29.75 "Hg10 mi
2:53 pm69 °FPartly sunny.17 mph63%29.75 "Hg10 mi
1:53 pm69 °FPartly sunny.9 mph68%29.75 "Hg10 mi
12:53 pm68 °FBroken clouds.3 mph70%29.78 "Hg10 mi
Weather by CustomWeather, © 2017

See weather overviewHow to use our weather pages